Regional Weather Roundup
Issued by NWS

Home | Current Version | Previous Version | Graphics & Text | Print | Product List | Glossary On
Versions: 1 2 3 4 5 6 7 8 9 10 11 12 13 14 15 16 17 18 19 20 21 22 23 24 25 26 27 28 29 30 31 32 33 34 35 36 37 38 39 40 41 42 43 44 45 46 47 48 49 50
000
ASUS43 KIND 241559
RWRIN

WEATHER ROUNDUP FOR INDIANA
NATIONAL WEATHER SERVICE INDIANAPOLIS IN
1200 PM EDT THU JUL 24 2014

NOTE: "FAIR" INDICATES FEW OR NO CLOUDS BELOW 12,000 FEET WITH NO
SIGNIFICANT WEATHER AND/OR OBSTRUCTIONS TO VISIBILITY.

* - STATION DOES NOT REPORT WEATHER SUCH AS PRECIPITATION OR FOG.

+ - STATION NOT QUALITY CONTROLLED BY THE NATIONAL WEATHER SERVICE.
    USE DATA WITH CAUTION...ESPECIALLY DEWPOINT AND RELATIVE
    HUMIDITY OBSERVATIONS.

INZ001>003-010>013-019-020-241700-
NORTHWEST INDIANA

CITY           SKY/WX    TMP DP  RH WIND       PRES   REMARKS
GARY /AIRPORT/ MOSUNNY   70  61  73 N9G23     30.17S
KNOX *+        PTSUNNY   70  52  52 NE5       30.14F
MONTICELLO +   MOSUNNY   69  57  64 NE6       30.13S
RENSSELAER +   MOSUNNY   70  57  64 E8        30.15S
VALPARAISO     PTSUNNY   69  53  56 N5        30.16S

$$

LMZ046-743>745-241700-
SOUTHERN LAKE MICHIGAN

STATION/POSITION TIME  TEMP WIND        PRES
                       AIR  DIR/SP/G
                 (UTC) (F)  (DEG/KT/KT) (MB)
MICHIGAN CITY    1500   65  360/  9/ 11   N/A

$$

INZ004-005-014>016-021>024-241700-
NORTH CENTRAL INDIANA

CITY           SKY/WX    TMP DP  RH WIND       PRES   REMARKS
ELKHART        MOSUNNY   68  52  56 NE8       30.16S
GOSHEN         PTSUNNY   72  54  53 N10       30.14F
SOUTH BEND     PTSUNNY   69  51  52 N8        30.16S
WARSAW +       MOSUNNY   70  54  56 NE13      30.14S

$$

INZ006>009-017-018-025>027-241700-
NORTHEAST INDIANA

CITY           SKY/WX    TMP DP  RH WIND       PRES   REMARKS
ANGOLA *+      PTSUNNY   70  48  46 VRB7      30.14S
FORT WAYNE     PTSUNNY   70  48  45 NE12G20   30.13S

$$

INZ028-029-035-036-043>045-051>053-241700-
WEST CENTRAL INDIANA

CITY           SKY/WX    TMP DP  RH WIND       PRES   REMARKS
GREENCASTLE +  PTSUNNY   68  59  73 NE10      30.12S
LAFAYETTE      CLOUDY    70  59  68 E7        30.13S
TERRE HAUTE    PTSUNNY   74  61  63 N8        30.11S

$$

INZ030>032-037>040-046>048-054>057-064-065-241700-
CENTRAL INDIANA

CITY           SKY/WX    TMP DP  RH WIND       PRES   REMARKS
COLUMBUS       SUNNY     72  59  64 NE12      30.10S
INDIANAPOLIS   MOSUNNY   71  55  56 N8        30.10S
-EAGLE CREEK   MOSUNNY   71  55  56 VRB7      30.11S
KOKOMO *+      SUNNY     72  54  53 NE6       30.13S
MT COMFORT *+  SUNNY     72  59  64 NE10      30.12S
SHELBYVILLE    SUNNY     73  55  53 NE10G18   30.10S
ZIONSVILLE +   MOSUNNY   70  55  58 NE7       30.13R

$$

INZ033-034-041-042-049-050-058-059-241700-
EAST CENTRAL INDIANA

CITY           SKY/WX    TMP DP  RH WIND       PRES   REMARKS
MUNCIE         SUNNY     71  52  50 NE12      30.11S

$$

INZ060-061-067>069-081>083-085>088-241700-
SOUTHWEST INDIANA

CITY           SKY/WX    TMP DP  RH WIND       PRES   REMARKS
EVANSVILLE     SUNNY     76  59  55 NE10      30.08S
HUNTINGBURG *+ SUNNY     75  55  50 NE13      30.08S

$$

INZ062-063-066-070>080-084-089>092-241700-
SOUTH CENTRAL AND SOUTHEAST INDIANA

CITY           SKY/WX    TMP DP  RH WIND       PRES   REMARKS
BLOOMINGTON    SUNNY     73  55  53 NE10      30.10F

$$




USA.gov is the U.S. government's official web portal to all federal, state and local government web resources and services.